Flag for Vietnam Weather past 2 weeks in Ho Chi Minh, Vietnam

Now
97 °F

Scattered clouds.


Feels Like: 100 °F
Forecast: 80 / 95 °F
Wind: 6 mph from North

Location: Ho Chi Minh

Current Time: Mar 29, 2015 at 1:45:34 PM

Latest Report: Mar 29, 2015 at 1:00 PM


Visibility: N/A

Pressure: 29.80 "Hg

Humidity: 37%

Dew point: 66 °F

Location of Ho Chi MinhLocation

Historic Weather in Ho Chi Minh — Graph

°F

Ho Chi Minh temperature yesterday

Maximum temperature yesterday: 99 °F (at 3:00 PM)
Minimum temperature yesterday: 77 °F (at 5:00 AM)
Average temperature yesterday: 87 °F

Past Weeks' High & Low Weather Summary

 TemperatureHumidityPressure
High100 °F (Mar 27, 1:30 PM)83% (Mar 16, 4:00 AM)30.01 "Hg (Mar 16, 4:00 AM)
Low75 °F (Mar 19, 5:30 AM)27% (Mar 25, 12:30 PM)29.74 "Hg (Mar 19, 2:30 PM)
Average84 °F60%29.88 "Hg
* Reported Mar 14 12:00 Noon — Mar 29 12:30 PM, Ho Chi Minh, Weather by CustomWeather, © 2015

Note: Actual official high and low records may vary slightly from our data, if they occured in-between our weather recording intervals... More about our weather records

Advertising

Ho Chi Minh weather history for previous 24 hours

 ConditionsComfort  
Time TempWeatherWind HumidityBarometerVisibility
12:30 PM
Sun, Mar 29
95 °FScattered clouds.3 mph39%29.83 "HgN/A
12:00 PM95 °FScattered clouds.9 mph39%29.86 "HgN/A
11:30 AM93 °FPassing clouds.7 mph44%29.86 "HgN/A
11:00 AM93 °FPassing clouds.7 mph44%29.89 "HgN/A
10:30 AM91 °FPassing clouds.8 mph46%29.89 "HgN/A
10:00 AM91 °FPassing clouds.9 mph46%29.89 "HgN/A
9:30 AM90 °FPassing clouds.8 mph49%29.92 "HgN/A
9:00 AM88 °FPassing clouds.9 mph52%29.92 "HgN/A
8:30 AM88 °FPassing clouds.10 mph52%29.92 "HgN/A
8:00 AM86 °FPassing clouds.7 mph55%29.89 "HgN/A
7:30 AM84 °FPassing clouds.5 mph58%29.89 "HgN/A
7:00 AM81 °FSunny.3 mph70%29.89 "Hg10 mi
6:30 AM81 °FSunny.3 mph66%29.86 "Hg10 mi
6:00 AM79 °FSunny.3 mph70%29.86 "Hg10 mi
5:30 AM81 °FPassing clouds.5 mph66%29.83 "HgN/A
5:00 AM81 °FClear.6 mph66%29.83 "Hg10 mi
4:30 AM81 °FClear.7 mph66%29.80 "Hg10 mi
3:30 AM81 °FPassing clouds.7 mph66%29.83 "HgN/A
3:00 AM81 °FClear.9 mph66%29.83 "Hg10 mi
2:30 AM82 °FClear.9 mph62%29.83 "Hg10 mi
2:00 AM81 °FClear.8 mph66%29.83 "Hg10 mi
1:30 AM82 °FClear.10 mph62%29.83 "Hg10 mi
1:00 AM82 °FPassing clouds.10 mph62%29.86 "HgN/A
12:30 AM82 °FPassing clouds.10 mph62%29.86 "HgN/A
12:00 AM82 °FPassing clouds.9 mph62%29.86 "HgN/A
11:30 PM
Sat, Mar 28
82 °FClear.12 mph62%29.86 "Hg10 mi
11:00 PM82 °FPassing clouds.12 mph66%29.86 "HgN/A
10:30 PM82 °FClear.10 mph66%29.89 "Hg10 mi
10:00 PM82 °FPassing clouds.13 mph66%29.89 "HgN/A
9:30 PM84 °FPassing clouds.9 mph62%29.89 "HgN/A
9:00 PM84 °FPassing clouds.9 mph62%29.86 "HgN/A
8:30 PM84 °FPassing clouds.13 mph62%29.86 "HgN/A
8:00 PM84 °FPassing clouds.13 mph62%29.86 "HgN/A
7:30 PM86 °FPassing clouds.14 mph55%29.86 "HgN/A
7:00 PM86 °FClear.14 mph55%29.83 "Hg10 mi
6:30 PM88 °FPassing clouds.12 mph52%29.83 "HgN/A
6:00 PM88 °FScattered clouds.13 mph55%29.80 "HgN/A
5:30 PM90 °FScattered clouds.12 mph49%29.80 "HgN/A
5:00 PM91 °FScattered clouds.14 mph46%29.80 "HgN/A
4:30 PM91 °FScattered clouds.14 mph44%29.80 "HgN/A
4:00 PM95 °FScattered clouds.15 mph39%29.77 "HgN/A
3:30 PM95 °FScattered clouds.13 mph39%29.77 "HgN/A
3:00 PM99 °FScattered clouds.15 mph35%29.77 "HgN/A
2:30 PM97 °FPartly sunny.14 mph37%29.80 "HgN/A
2:00 PM95 °FPartly sunny.12 mph39%29.80 "HgN/A
1:30 PM97 °FPartly sunny.9 mph32%29.83 "HgN/A
1:00 PM97 °FPartly sunny.9 mph34%29.83 "HgN/A
Weather by CustomWeather, © 2015

See weather overviewHow to use our weather pages